• Join FlightAware (Why Join?)
  • Login
  • US Flag 
02:42AM EDT


 

Airport Tracker/Info


-or-


 

Live Flight TrackerFlight Track Log ✈ EJM685 ✈ 08-Oct-2013 ✈ KIAD - KTEB

Flight Track Log - Related Links

Times and Time Zones

All times are in EDT time to prevent confusion due to time zone crossing. See the EJM685 flight status page for this flight to view local times or setup timezone preferences in your user account.

Time Position Orientation Groundspeed Altitude Reporting Facility
EDT Latitude Longitude Course Direction KTS MPH feet Rate Location/Type
05:22PM 39.0000 -77.4500 349° North 201 231 4,100  Level Potomac TRACON
05:23PM 39.0667 -77.4667 349° North 269 310 7,600 2,400 Climbing Potomac TRACON
05:24PM 39.1333 -77.4500 11° North 296 341 9,000 720 Climbing Potomac TRACON
05:25PM 39.1833 -77.3833 46° Northeast 289 333 9,000 60 Level Potomac TRACON
05:26PM 39.2333 -77.2833 57° Northeast 290 334 9,200 1,080 Climbing Potomac TRACON
05:28PM 39.3019 -77.1178 62° Northeast 308 354 12,400 1,800 Climbing Washington Center
05:29PM 39.3119 -76.9703 85° East 337 388 14,800 1,260 Climbing Washington Center
05:30PM 39.2569 -76.8567 122° Southeast 328 377 15,000 60 Climbing Washington Center
05:31PM 39.2497 -76.7333 94° East 341 392 15,000 420 Level Washington Center
05:32PM 39.2864 -76.6106 69° East 348 400 15,900 960 Climbing Washington Center
05:33PM 39.3228 -76.4822 70° East 353 406 17,000 540 Climbing Washington Center
05:34PM 39.3592 -76.3511 70° East 371 427 17,000  Level Washington Center
05:35PM 39.3953 -76.2361 68° East 376 433 17,000  Level Washington Center
05:36PM 39.4311 -76.1047 71° East 381 438 17,000  Level Washington Center
05:37PM 39.4839 -75.9842 60° Northeast 381 438 17,000 -480 Level Washington Center
05:39PM 39.6667 -75.7667 42° Northeast 376 433 15,600 -1,020 Descending Philadelphia TRACON
05:40PM 39.7500 -75.6667 43° Northeast 367 422 13,700 -1,260 Descending Philadelphia TRACON
05:41PM 39.8167 -75.5833 44° Northeast 341 392 13,000 -420 Descending Philadelphia TRACON
05:42PM 39.8833 -75.5167 37° Northeast 297 342 13,000  Level Philadelphia TRACON
05:43PM 39.9500 -75.4500 37° Northeast 301 346 13,000  Level Philadelphia TRACON
05:44PM 40.0167 -75.3833 37° Northeast 298 343 13,000  Level Philadelphia TRACON
05:45PM 40.0833 -75.3333 30° Northeast 298 343 13,000  Level Philadelphia TRACON
05:46PM 40.1500 -75.2667 37° Northeast 297 342 13,000 -780 Level Philadelphia TRACON
05:47PM 40.2167 -75.2000 37° Northeast 297 342 11,500 -1,560 Descending Philadelphia TRACON
05:50PM 40.3667 -75.0500 37° Northeast 275 316 7,800 -1,500 Descending New York TRACON
05:51PM 40.4167 -74.9667 52° Northeast 264 304 6,600 -1,200 Descending New York TRACON
05:52PM 40.4667 -74.9000 45° Northeast 263 303 5,400 -900 Descending New York TRACON
05:53PM 40.5167 -74.8333 45° Northeast 260 299 5,000 -600 Descending New York TRACON
05:54PM 40.5667 -74.7667 45° Northeast 252 290 4,200 -900 Descending New York TRACON
05:55PM 40.5833 -74.6833 75° East 257 296 3,200 -600 Descending New York TRACON
05:56PM 40.5667 -74.6000 105° East 229 264 3,000 -120 Descending New York TRACON
05:57PM 40.5667 -74.5167 90° East 223 257 3,000  Level New York TRACON
05:58PM 40.6000 -74.4333 62° Northeast 222 255 3,000 -60 Level New York TRACON
05:59PM 40.6333 -74.3833 49° Northeast 215 247 2,900 -480 Descending New York TRACON
06:00PM 40.6667 -74.3333 49° Northeast 195 224 2,200 -480 Descending New York TRACON
06:01PM 40.7000 -74.2833 49° Northeast 172 198 2,000 -360 Descending New York TRACON
06:02PM 40.7333 -74.2333 49° Northeast 177 204 1,500 -240 Descending New York TRACON
06:03PM 40.7667 -74.1833 49° Northeast 172 198 1,500 -60 Level New York TRACON
06:04PM 40.8000 -74.1333 49° Northeast 155 178 1,400 -480 Descending New York TRACON
06:05PM 40.8167 -74.1000 57° Northeast 127 146 700 -780 Descending New York TRACON